Location: Berkeley
(37.8716°N, 122.2727°W)
Time: 16:49:17
(UTC-07:00)

Envisat - Pass Details

Date: 16 May 2026
Orbit: 761 x 763 km, 98.4° (Epoch: 7 June)

Event Time Altitude Azimuth Distance (km) Brightness Sun altitude
Rises 02:58:11 0° 24° (NNE) 3,229 7.5 -27.1°
Reaches altitude 10° 03:00:46 10° 35° (NE) 2,298 6.5 -26.9°
Maximum altitude 03:05:11 30° 96° (E) 1,335 4.4 -26.4°
Enters shadow 03:06:38 26° 126° (SE) 1,466 4.4 -26.3°
